Leuchars, United Kingdom

2:50 AM GMT on February 08, 2016 (GMT +0000)
Leuchars

Weather History for 03171 - January, 2014

Change the Weather History Date:

Sunday, January 19, 2014

  Actual Average Record
Temperature  
Mean Temperature 40 °F -  
Max Temperature 45 °F 43 °F - ()
Min Temperature 35 °F 33 °F - ()
Degree Days  
Heating Degree Days 25    
Moisture  
Dew Point 41 °F    
Average Humidity 91    
Maximum Humidity 100    
Minimum Humidity 85    
Precipitation  
Precipitation 0.28 in - - ()
Sea Level Pressure  
Sea Level Pressure 29.31 in    
Wind  
Wind Speed 13 mph ()    
Max Wind Speed 22 mph    
Max Gust Speed -    
Visibility 6.9 miles    
Events Rain    
T = Trace of Precipitation, MM = Missing Value Source: Averaged Metar Reports

Daily Weather History Graph

Daily Weather History Graph

Search for Another Location

Airport or City:

Trip Planner

Search our weather history database for the weather conditions in past years. The results will help you decide how hot, cold, wet, or windy it might be!

Date:

Astronomy

Jan. 19, 2014 Rise Set
Actual Time 8:29 AM GMT 4:15 PM GMT
Civil Twilight 7:45 AM GMT 4:59 PM GMT
Nautical Twilight 6:58 AM GMT 5:46 PM GMT
Astronomical Twilight 6:13 AM GMT 6:31 PM GMT
Moon 8:27 PM GMT (1/19) 9:09 AM GMT (1/19)
Length of Visible Light 9h 14m
Length of Day
7h 45m
Waning Gibbous, 90% of the Moon is Illuminated
Jan 19
Waning Gibbous
Jan 24
Last Quarter
Jan 30
New
Feb 6
First Quarter
Feb 14
Full

Hourly Weather History & Observations

Time (GMT) Temp. Windchill Dew Point Humidity Pressure Visibility Wind Dir Wind Speed Gust Speed Precip Events Conditions
12:00 AM 45 °F - 43 °F 88% 29.28 in 7 mi SE 15.0 mph - -   Partly Cloudy
12:50 AM 44.6 °F 38.8 °F 42.8 °F 93% 29.27 in 6.2 mi SE 11.5 mph - N/A   Overcast
1:00 AM 45 °F - 43 °F 89% 29.27 in 6 mi SE 11.5 mph - -   Overcast
1:50 AM 44.6 °F 37.2 °F 42.8 °F 93% 29.24 in 6.2 mi ESE 17.3 mph - N/A   Overcast
2:00 AM 45 °F - 42 °F 85% 29.26 in 6 mi ESE 17.3 mph - -   Overcast
2:50 AM 44.6 °F 37.2 °F 42.8 °F 93% 29.27 in 6.2 mi SE 17.3 mph - N/A   Overcast
3:00 AM 45 °F - 42 °F 87% 29.27 in 6 mi SE 17.3 mph - -   Overcast
3:50 AM 44.6 °F 36.6 °F 42.8 °F 93% 29.24 in 5.0 mi ESE 19.6 mph - N/A Rain Light Rain
4:00 AM 45 °F - 43 °F 89% 29.26 in 5 mi ESE 19.6 mph - - Rain Light Rain
4:50 AM 44.6 °F 36.6 °F 42.8 °F 93% 29.24 in 3.7 mi ESE 19.6 mph - N/A Rain Rain
5:00 AM 45 °F - 43 °F 92% 29.25 in 4 mi ESE 19.6 mph - - Rain Rain
5:50 AM 44.6 °F 36.1 °F 42.8 °F 93% 29.24 in 3.7 mi SE 21.9 mph - N/A Rain Rain
6:00 AM 45 °F - 44 °F 92% 29.24 in 4 mi SE 21.9 mph - - Rain Rain
6:50 AM 44.6 °F 36.6 °F 42.8 °F 93% 29.24 in 3.7 mi SE 19.6 mph - N/A Rain Light Rain
7:00 AM 45 °F - 43 °F 92% 29.26 in 4 mi SE 19.6 mph - - Rain Light Rain
7:50 AM 46.4 °F 39.2 °F 42.8 °F 87% 29.27 in 3.7 mi SE 18.4 mph - N/A   Haze
8:00 AM 46 °F - 43 °F 87% 29.27 in 4 mi SE 18.4 mph - - Rain Light Rain
8:50 AM 44.6 °F 36.1 °F 44.6 °F 100% 29.27 in 2.8 mi SE 21.9 mph - N/A Rain Light Rain
9:00 AM 45 °F - 44 °F 93% 29.28 in 3 mi SE 21.9 mph - - Rain Light Rain
9:50 AM 44.6 °F 36.1 °F 42.8 °F 93% 29.27 in 3.1 mi SE 21.9 mph - N/A Rain Light Rain
10:00 AM 45 °F - 44 °F 92% 29.29 in 3 mi SE 21.9 mph - - Rain Light Rain
10:50 AM 44.6 °F 37.2 °F 42.8 °F 93% 29.30 in 2.5 mi SE 17.3 mph - N/A Rain Light Rain
11:00 AM 45 °F - 43 °F 91% 29.30 in 2 mi SE 17.3 mph - - Rain Light Rain
11:50 AM 44.6 °F 37.2 °F 42.8 °F 93% 29.30 in 2.8 mi SE 17.3 mph - N/A Rain Light Rain
12:00 PM 45 °F - 42 °F 87% 29.30 in 3 mi SE 17.3 mph - - Rain Light Rain
12:50 PM 44.6 °F 37.4 °F 42.8 °F 93% 29.27 in 2.8 mi SE 16.1 mph - N/A Rain Light Rain
1:00 PM 45 °F - 43 °F 90% 29.29 in 3 mi SE 16.1 mph - - Rain Light Rain
1:50 PM 44.6 °F 37.8 °F 42.8 °F 93% 29.27 in 3.7 mi SE 15.0 mph - N/A Rain Light Rain
2:00 PM 45 °F - 42 °F 85% 29.29 in 4 mi SE 15.0 mph - - Rain Light Rain
2:50 PM 44.6 °F 40.7 °F 42.8 °F 93% 29.27 in 6.2 mi South 6.9 mph - N/A Rain Light Rain
3:00 PM 44 °F - 42 °F 92% 29.29 in 6 mi South 6.9 mph - - Rain Light Rain
3:50 PM 42.8 °F 41.1 °F 41.0 °F 93% 29.30 in 6.2 mi WSW 3.5 mph - N/A   Mostly Cloudy
4:00 PM 44 °F - 42 °F 89% 29.31 in 19 mi WSW 3.5 mph - - Rain Light Rain
4:50 PM 41.0 °F 37.1 °F 39.2 °F 93% 29.30 in 6.2 mi SW 5.8 mph - N/A   Mostly Cloudy
5:00 PM 42 °F - 40 °F 88% 29.32 in 19 mi SW 5.8 mph - -   Mostly Cloudy
5:50 PM 41.0 °F 38.0 °F 39.2 °F 93% 29.36 in 6.2 mi SSW 4.6 mph - N/A   Mostly Cloudy
6:00 PM 41 °F - 39 °F 92% 29.36 in 16 mi SSW 4.6 mph - -   Partly Cloudy
6:50 PM 39.2 °F 35.0 °F 37.4 °F 93% 29.36 in 6.2 mi SW 5.8 mph - N/A   Mostly Cloudy
7:00 PM 40 °F - 38 °F 88% 29.37 in 19 mi SW 5.8 mph - -   Mostly Cloudy
7:50 PM 37.4 °F 32.1 °F 35.6 °F 93% 29.39 in 6.2 mi SW 6.9 mph - N/A   Scattered Clouds
8:00 PM 37 °F - 35 °F 88% 29.40 in 19 mi SW 6.9 mph - -   Partly Cloudy
8:50 PM 35.6 °F 30.7 °F 33.8 °F 93% 29.42 in 6.2 mi SW 5.8 mph - N/A   Partly Cloudy
9:00 PM 36 °F - 35 °F 92% 29.42 in 17 mi SW 5.8 mph - -   Scattered Clouds
9:50 PM 37.4 °F 32.8 °F 33.8 °F 87% 29.42 in 6.2 mi WSW 5.8 mph - N/A   Scattered Clouds
10:00 PM 36 °F - 35 °F 92% 29.44 in 16 mi WSW 5.8 mph - -   Partly Cloudy
10:50 PM 35.6 °F 31.7 °F 33.8 °F 93% 29.44 in 6.2 mi SW 4.6 mph - N/A   Partly Cloudy
11:00 PM 35 °F - 33 °F 89% 29.46 in 19 mi SW 4.6 mph - -   Scattered Clouds
11:50 PM 35.6 °F - 33.8 °F 93% 29.47 in - West 1.2 mph - N/A   Clear